Regional Weather Roundup
Issued by NWS

Home | Current Version | Previous Version | Text Only | Print | Product List | Glossary Off
Versions: 1 2 3 4 5 6 7 8 9 10 11 12 13 14 15 16 17 18 19 20 21 22 23 24 25 26 27 28 29 30 31 32 33 34 35 36 37 38 39 40 41 42 43 44 45 46 47 48 49 50

000
ASUS43 KDMX 151507
RWRIA

WEATHER ROUNDUP FOR IOWA
NATIONAL WEATHER SERVICE DES MOINES IA
1000 AM CDT MON SEP 15 2014

NOTE: "FAIR" INDICATES FEW OR NO CLOUDS BELOW 12,000 FEET WITH NO
SIGNIFICANT WEATHER AND/OR OBSTRUCTIONS TO VISIBILITY.

* - THESE STATIONS ARE NOT NWS STATIONS...THUS NOT UNDER NWS
QUALITY CONTROL.  THEY ALSO DO NOT REPORT WEATHER SUCH
AS PRECIPITATION OR FOG.

IAZ001>003-012>014-020>022-031>034-043>046-151600-
   NORTHWEST IOWA

CITY           SKY/WX    TMP DP  RH WIND       PRES   REMARKS
CARROLL *      CLOUDY    50  48  93 N15G23    30.19R
CHEROKEE *     CLOUDY    54  52  94 N12       30.22R
DENISON *      CLOUDY    52  48  87 NE20      30.18R
LE MARS *      CLOUDY    54  48  82 N12G17    30.24R
ORANGE CITY *  PTSUNNY   54  46  76 N10       30.24R
SHELDON *      PTSUNNY   52  48  87 N12       30.23R
SIOUX CITY     SUNNY     57  47  69 N10       30.23R
SPENCER        CLOUDY    53  47  79 N12       30.22R
STORM LAKE *   MOSUNNY   52  50  93 NE14G21   30.20R
$$

IAZ055>058-069>071-079>083-090>094-151600-
   SOUTHWEST IOWA

CITY           SKY/WX    TMP DP  RH WIND       PRES   REMARKS
ATLANTIC *     CLOUDY    54  50  87 N16G23    30.15R
AUDUBON *      CLOUDY    54  50  87 N16       30.18R
CLARINDA *     CLOUDY    63  59  88 N5        30.12R
COUNCIL BLFS * CLOUDY    54  52  94 N14G21    30.16R
CRESTON *      CLOUDY    61  59  94 N6        30.10R
HARLAN  *      CLOUDY    52  50  93 NE15G25   30.21R
LAMONI         CLOUDY    59  57  93 NE6       30.08R
SHENANDOAH *   CLOUDY    63  61  94 N13G18    30.12R
$$

IAZ047>049-059>061-072>074-084-151600-
   CENTRAL IOWA

CITY           SKY/WX    TMP DP  RH WIND       PRES   REMARKS
AMES           CLOUDY    55  50  83 N16G24    30.14R
ANKENY *       CLOUDY    59  55  88 N15       30.11R
CHARITON *     PTSUNNY   59  59 100 SE8       30.06F FOG
DES MOINES     CLOUDY    62  58  86 N9        30.10R
GRINNELL*      CLOUDY    61  57  88 NW5       30.09S
KNOXVILLE *    CLOUDY    61  57  88 CALM      30.08R
MARSHALLTOWN   CLOUDY    57  51  80 N20       30.12R
PELLA *        CLOUDY    63  59  88 W3        30.10R
PERRY *        CLOUDY    54  50  87 N15G21    30.15R
$$

IAZ004>006-015-016-023>025-035-036-151600-
   NORTH CENTRAL IOWA

CITY           SKY/WX    TMP DP  RH WIND       PRES   REMARKS
ALGONA *       PTSUNNY   50  50 100 NE9       30.20S
CLARION *      LGT RAIN  50  50 100 N9G15     30.19R
ESTHERVILLE    CLOUDY    51  47  86 N10       30.22R
FORT DODGE *   CLOUDY    50  46  87 N8        30.20R
MASON CITY     LGT RAIN  50  49  96 N10       30.20R
FOREST CITY *  CLOUDY    50  50 100 N5        30.19F
IOWA FALLS *   CLOUDY    52  48  87 N14G20    30.18R
$$

IAZ007>011-017>019-026>030-037>042-050>054-066-151600-
   NORTHEAST IOWA

CITY           SKY/WX    TMP DP  RH WIND       PRES   REMARKS
CEDAR RAPIDS   MOSUNNY   60  56  86 CALM      30.07F
CHARLES CITY * LGT RAIN  50  48  93 N8        30.19R
CLINTON *      PTSUNNY   57  52  82 E5        30.12S
DECORAH *      RAIN      50  50 100 N8        30.17R
DUBUQUE        PTSUNNY   57  51  80 NE5       30.12R
MONTICELLO *   SUNNY     59  54  82 E6        30.09F
OELWEIN *      CLOUDY    54  50  87 N10       30.15R
WATERLOO       CLOUDY    53  48  83 N16G22    30.13R
$$

IAZ064-065-067-068-078-151600-
   EAST CENTRAL IOWA

CITY           SKY/WX    TMP DP  RH WIND       PRES   REMARKS
DAVENPORT      CLOUDY    57  52  83 SE9       30.08F
IOWA CITY      CLOUDY    59  55  87 E3        30.09S
MT. PLEASANT * LGT RAIN  57  55  94 CALM      30.10R
MUSCATINE *    DRIZZLE   57  55  94 CALM      30.09S
QUAD CITIES    CLOUDY    56  53  90 SE6       30.09S THUNDER
$$

IAZ062-063-075>077-085>089-095>099-151600-
   SOUTHEAST IOWA

CITY           SKY/WX    TMP DP  RH WIND       PRES   REMARKS
BURLINGTON     HVY RAIN  55  32  41 W7        30.12R
FAIRFIELD *    CLOUDY    57  55  94 E3        30.09S FOG
FORT MADISON * LGT RAIN  57  55  94 NE5       30.08R
KEOKUK *       RAIN      57  55  94 S5        30.06F
OSKALOOSA *    CLOUDY    57  57 100 S6        30.07F
CENTERVILLE *  CLOUDY    57  57 100 E3        30.09R
OTTUMWA        CLOUDY    58  56  93 E5        30.08S FOG
WASHINGTON *   CLOUDY    57  57 100 S7        30.09R
$$

ABBREVIATIONS USED IN REMARKS
   TC - TEMPERATURES IN CELSIUS
  WCI - WIND CHILL INDEX
   HX - HEAT INDEX
  VSB - VISIBILITY
$$




USA.gov is the U.S. government's official web portal to all federal, state and local government web resources and services.